Meteo pe oră la Bolshoe Nikitino

Astăzi, 10 Mai, Luni

Timp Temperatura Precipitaţii Vânt Presiune Umiditate
00:00 +2°C° 0 mm 1 m/s 749 mmHg 66%
01:00 +2°C° 0 mm 1 m/s 749 mmHg 66%
02:00 +1°C° 0 mm 1 m/s 750 mmHg 66%
03:00 +2°C° 0 mm 1 m/s 750 mmHg 64%
04:00 +3°C° 0 mm 1 m/s 751 mmHg 62%
05:00 +3°C° 0 mm 1 m/s 751 mmHg 60%
06:00 +6°C° 0 mm 1 m/s 751 mmHg 54%
07:00 +8°C° 0 mm 1 m/s 752 mmHg 48%
08:00 +10°C° 0 mm 1 m/s 752 mmHg 42%
09:00 +11°C° 0 mm 1 m/s 752 mmHg 40%
10:00 +12°C° 0 mm 2 m/s 752 mmHg 39%
11:00 +13°C° 0 mm 2 m/s 752 mmHg 37%
12:00 +14°C° 0 mm 2 m/s 752 mmHg 37%
13:00 +15°C° 0 mm 2 m/s 752 mmHg 36%
14:00 +15°C° 0 mm 2 m/s 752 mmHg 35%
15:00 +14°C° 0 mm 2 m/s 752 mmHg 42%
16:00 +14°C° 0 mm 2 m/s 752 mmHg 49%
17:00 +13°C° 0 mm 2 m/s 752 mmHg 56%
18:00 +12°C° 0 mm 2 m/s 752 mmHg 60%
19:00 +9°C° 0 mm 2 m/s 752 mmHg 64%
20:00 +8°C° 0 mm 2 m/s 752 mmHg 68%
21:00 +7°C° 0 mm 2 m/s 753 mmHg 69%
22:00 +7°C° 0 mm 2 m/s 753 mmHg 70%
23:00 +6°C° 0 mm 2 m/s 753 mmHg 71%

Mâine, 11 Mai, Marţi

Timp Temperatura Precipitaţii Vânt Presiune Umiditate
00:00 +6°C° 0 mm 2 m/s 753 mmHg 72%
01:00 +6°C° 0 mm 2 m/s 753 mmHg 73%
02:00 +5°C° 0 mm 2 m/s 754 mmHg 73%
03:00 +6°C° 0 mm 2 m/s 754 mmHg 73%
04:00 +6°C° 0 mm 2 m/s 754 mmHg 72%
05:00 +7°C° 0 mm 2 m/s 754 mmHg 71%
06:00 +9°C° 0 mm 2 m/s 754 mmHg 65%
07:00 +10°C° 0 mm 2 m/s 754 mmHg 59%
08:00 +13°C° 0 mm 2 m/s 755 mmHg 54%
09:00 +15°C° 0 mm 2 m/s 755 mmHg 50%
10:00 +16°C° 0 mm 2 m/s 754 mmHg 47%
11:00 +18°C° 0 mm 2 m/s 754 mmHg 44%
12:00 +19°C° 0 mm 2 m/s 754 mmHg 44%
13:00 +19°C° 0 mm 2 m/s 754 mmHg 44%
14:00 +20°C° 0 mm 2 m/s 754 mmHg 43%
15:00 +20°C° 0 mm 2 m/s 754 mmHg 47%
16:00 +19°C° 0 mm 2 m/s 754 mmHg 50%
17:00 +19°C° 0 mm 2 m/s 754 mmHg 53%
18:00 +17°C° 0 mm 2 m/s 754 mmHg 61%
19:00 +14°C° 0 mm 2 m/s 754 mmHg 68%
20:00 +12°C° 0 mm 2 m/s 754 mmHg 76%
21:00 +12°C° 0 mm 2 m/s 754 mmHg 78%
22:00 +10°C° 0 mm 2 m/s 754 mmHg 80%
23:00 +9°C° 0 mm 2 m/s 754 mmHg 82%

Poimâine, 12 Mai, Miercuri

Timp Temperatura Precipitaţii Vânt Presiune Umiditate
00:00 +9°C° 0 mm 2 m/s 754 mmHg 83%
01:00 +9°C° 0 mm 1 m/s 754 mmHg 83%
02:00 +9°C° 0 mm 1 m/s 754 mmHg 84%
03:00 +10°C° 0 mm 1 m/s 754 mmHg 82%
04:00 +10°C° 0 mm 1 m/s 754 mmHg 79%
05:00 +11°C° 0 mm 1 m/s 754 mmHg 77%
06:00 +13°C° 0 mm 1 m/s 754 mmHg 71%
07:00 +15°C° 0 mm 2 m/s 754 mmHg 64%
08:00 +17°C° 0 mm 2 m/s 754 mmHg 58%
09:00 +18°C° 0 mm 2 m/s 753 mmHg 55%
10:00 +20°C° 0 mm 3 m/s 753 mmHg 52%
11:00 +21°C° 0 mm 3 m/s 753 mmHg 49%
12:00 +21°C° 0 mm 3 m/s 752 mmHg 49%
13:00 +22°C° 0 mm 4 m/s 752 mmHg 48%
14:00 +22°C° 0 mm 4 m/s 751 mmHg 47%
15:00 +21°C° 0 mm 4 m/s 751 mmHg 50%
16:00 +21°C° 0 mm 4 m/s 751 mmHg 53%
17:00 +21°C° 0 mm 4 m/s 750 mmHg 56%
18:00 +19°C° 0 mm 4 m/s 750 mmHg 64%
19:00 +17°C° 0 mm 3 m/s 750 mmHg 71%
20:00 +16°C° 0 mm 3 m/s 750 mmHg 78%
21:00 +14°C° 0 mm 3 m/s 750 mmHg 80%
22:00 +14°C° 0 mm 3 m/s 749 mmHg 83%
23:00 +14°C° 0 mm 3 m/s 749 mmHg 85%

13 Mai, Joi

Timp Temperatura Precipitaţii Vânt Presiune Umiditate
00:00 +14°C° 0 mm 2 m/s 749 mmHg 89%
01:00 +13°C° 0 mm 2 m/s 749 mmHg 93%
02:00 +12°C° 0 mm 2 m/s 749 mmHg 96%
03:00 +12°C° 0 mm 2 m/s 749 mmHg 95%
04:00 +13°C° 0 mm 2 m/s 749 mmHg 94%
05:00 +13°C° 0 mm 2 m/s 749 mmHg 93%
06:00 +14°C° 0 mm 2 m/s 749 mmHg 88%
07:00 +14°C° 0 mm 3 m/s 749 mmHg 83%
08:00 +16°C° 0 mm 3 m/s 749 mmHg 78%
09:00 +17°C° 0.1 mm 4 m/s 748 mmHg 73%
10:00 +19°C° 0.1 mm 4 m/s 748 mmHg 69%
11:00 +20°C° 0.1 mm 5 m/s 747 mmHg 65%
12:00 +17°C° 1.4 mm 5 m/s 747 mmHg 73%
13:00 +16°C° 1.4 mm 5 m/s 747 mmHg 82%
14:00 +14°C° 1.4 mm 5 m/s 747 mmHg 91%
15:00 +15°C° 0.3 mm 4 m/s 747 mmHg 88%
16:00 +15°C° 0.3 mm 4 m/s 747 mmHg 86%
17:00 +15°C° 0.3 mm 4 m/s 746 mmHg 84%
18:00 +14°C° 0 mm 3 m/s 746 mmHg 88%
19:00 +14°C° 0 mm 2 m/s 746 mmHg 92%
20:00 +13°C° 0 mm 2 m/s 746 mmHg 96%
21:00 +13°C° 0 mm 2 m/s 747 mmHg 96%
22:00 +12°C° 0 mm 2 m/s 747 mmHg 96%
23:00 +12°C° 0 mm 2 m/s 747 mmHg 97%

14 Mai, Vineri

Timp Temperatura Precipitaţii Vânt Presiune Umiditate
00:00 +12°C° 0 mm 1 m/s 747 mmHg 97%
01:00 +11°C° 0 mm 1 m/s 747 mmHg 97%
02:00 +11°C° 0 mm 1 m/s 747 mmHg 97%
03:00 +11°C° 0 mm 1 m/s 747 mmHg 96%
04:00 +12°C° 0 mm 1 m/s 747 mmHg 95%
05:00 +12°C° 0 mm 1 m/s 747 mmHg 94%
06:00 +14°C° 0 mm 2 m/s 747 mmHg 87%
07:00 +16°C° 0 mm 2 m/s 747 mmHg 80%
08:00 +17°C° 0 mm 3 m/s 746 mmHg 73%
09:00 +18°C° 0 mm 3 m/s 746 mmHg 68%
10:00 +19°C° 0 mm 3 m/s 746 mmHg 63%
11:00 +20°C° 0 mm 3 m/s 746 mmHg 58%
12:00 +21°C° 0 mm 3 m/s 746 mmHg 56%
13:00 +21°C° 0 mm 3 m/s 745 mmHg 55%
14:00 +22°C° 0 mm 3 m/s 745 mmHg 53%
15:00 +21°C° 0.1 mm 3 m/s 744 mmHg 58%
16:00 +21°C° 0.1 mm 3 m/s 744 mmHg 63%
17:00 +20°C° 0.1 mm 3 m/s 744 mmHg 68%
18:00 +19°C° 0.1 mm 3 m/s 743 mmHg 75%
19:00 +17°C° 0.1 mm 3 m/s 743 mmHg 82%
20:00 +16°C° 0.1 mm 3 m/s 742 mmHg 90%
21:00 +16°C° 0.7 mm 3 m/s 742 mmHg 91%
22:00 +16°C° 0.7 mm 3 m/s 742 mmHg 92%
23:00 +16°C° 0.7 mm 3 m/s 741 mmHg 94%

15 Mai, Sâmbătă

Timp Temperatura Precipitaţii Vânt Presiune Umiditate
00:00 +16°C° 0.1 mm 3 m/s 741 mmHg 94%
01:00 +16°C° 0.1 mm 3 m/s 741 mmHg 94%
02:00 +16°C° 0.1 mm 3 m/s 740 mmHg 94%
03:00 +16°C° 0 mm 3 m/s 740 mmHg 95%
04:00 +16°C° 0 mm 3 m/s 740 mmHg 95%
05:00 +14°C° 0 mm 3 m/s 740 mmHg 96%
06:00 +17°C° 0 mm 3 m/s 741 mmHg 91%
07:00 +18°C° 0 mm 3 m/s 741 mmHg 85%
08:00 +19°C° 0 mm 3 m/s 741 mmHg 79%
09:00 +20°C° 0.1 mm 3 m/s 741 mmHg 75%
10:00 +20°C° 0.1 mm 3 m/s 741 mmHg 71%
11:00 +21°C° 0.1 mm 3 m/s 741 mmHg 67%
12:00 +22°C° 0.1 mm 3 m/s 741 mmHg 61%
13:00 +24°C° 0.1 mm 3 m/s 741 mmHg 56%
14:00 +24°C° 0.1 mm 3 m/s 741 mmHg 50%
15:00 +24°C° 0 mm 3 m/s 741 mmHg 54%
16:00 +23°C° 0 mm 2 m/s 741 mmHg 59%
17:00 +22°C° 0 mm 1 m/s 741 mmHg 64%
18:00 +21°C° 0 mm 1 m/s 741 mmHg 69%
19:00 +19°C° 0 mm 1 m/s 740 mmHg 74%
20:00 +18°C° 0 mm 1 m/s 740 mmHg 79%
21:00 +16°C° 0 mm 1 m/s 740 mmHg 81%
22:00 +16°C° 0 mm 1 m/s 740 mmHg 83%
23:00 +15°C° 0 mm 2 m/s 740 mmHg 86%
Arată mai mult

Formular de consimțământ

Meteoprog și furnizorii noștri de servicii pot stoca și accesa date personale, precum cookies, identificatori de dispozitiv sau alte tehnologii similare pe dispozitivul dumneavoastră și procesa astfel de date pentru a personaliza conținutul și reclamele, dar și pentru a oferi caracteristici de social media și pentru a analiza traficul.

  • Stocarea și/sau accesarea informațiilor pe dispozitivul dumneavoastră

    Cookies, identificatori de dispozitiv sau alte informații pot fi stocate sau accesate pe dispozitiv în scopurile indicate mai sus.

  • Reclame și conținut personalizat, evaluarea reclamelor și a conținutului, informații despre audiențe și dezvoltarea produselor

    Reclamele și conținutul pot fi personalizate pe baza unui profil. Pot fi adăugate date suplimentare pentru a personaliza mai bine reclamele și conținutul. Performanța reclamelor și conținutului poate fi măsurată. Pot fi obținute informații despre utilizatorii care au văzut reclamele și conținutul. Aceste date pot fi utilizate pentru a dezvolta sau îmbunătăți experiența utilizatorilor, sistemele și software-ul.

Dând clic pe ‘Sunt de acord’, permiteți utilizarea cookie-urilor menționate, a identificatorilor de dispozitiv, balizelor web sau altor tehnologii similare. Setările pot fi modificate din browser-ul dispozitivului dumneavoastră.

În anumite scopuri, interesele legitime pot prima asupra consimțământului. Puteți citi mai multe informații în acest sens în Politica privind Confidențialitatea Datelor și Cookie.